Regional Weather Roundup
Issued by NWS Burlington, VT

Current Version | Previous Version | Text Only | Print | Product List | Glossary Off
Versions: 1 2 3 4 5 6 7 8 9 10 11 12 13 14 15 16 17 18 19 20 21 22 23 24 25 26 27 28 29 30 31 32 33 34 35 36 37 38 39 40 41 42 43 44 45 46 47 48 49 50

000
ASUS41 KBTV 011030
RWRBTV
VERMONT REGIONAL WEATHER ROUNDUP
NATIONAL WEATHER SERVICE BURLINGTON VT
600 AM EDT WED OCT 01 2014

NOTE: "FAIR" INDICATES FEW OR NO CLOUDS BELOW 12,000 FEET WITH NO
SIGNIFICANT WEATHER AND/OR OBSTRUCTIONS TO VISIBILITY.

* THESE REPORTS ARE NOT UNDER NWS QUALITY CONTROL AND/OR DO NOT
  REPORT WEATHER SUCH AS PRECIPITATION AND FOG.

VTZ001>019-011100-
_____VERMONT_____


CITY           SKY/WX    TMP DP  RH WIND       PRES   REMARKS
BURLINGTON     CLOUDY    53  52  96 N5        30.09R FOG
MONTPELIER     CLOUDY    53  53 100 CALM      30.13R FOG
MORRISVILLE    CLOUDY    52  51  97 CALM      30.09S
ST. JOHNSBURY*   N/A     56  53  90 MISG      30.07R
MIDDLEBURY*    CLOUDY    55  55 100 N3        30.08R FOG
RUTLAND*       CLOUDY    57  54  88 CALM      30.07R
SPRINGFIELD    CLOUDY    57  53  86 CALM      30.07R
HIGHGATE*      FOG       49  49 100 N3        30.11R VSB 1
NEWPORT*       CLOUDY   N/A N/A N/A CALM      30.10R FOG
BENNINGTON     LGT RAIN  56  54  93 CALM      30.04R
SUTTON*          N/A     52 N/A N/A MISG        N/A
GALLUP MILLS*    N/A     52 N/A N/A MISG        N/A
UNION VILLAGE*   N/A     55 N/A N/A MISG        N/A
MT. MANSFIELD*   N/A     48 N/A N/A SE5         N/A

_____LAKE CHAMPLAIN_____


CITY           SKY/WX    TMP DP  RH WIND       PRES   REMARKS
BURTON ISLAND*   N/A     52  52 100 N1          N/A
COLCHESTER RF*   N/A     54  54 100 N10         N/A
DIAMOND ISL*     N/A     54  54 100 N12         N/A

$$

NYZ007-026>031-035-052-083-011100-
_____NORTHERN NEW YORK_____


CITY           SKY/WX    TMP DP  RH WIND       PRES   REMARKS
PLATTSBURGH    CLOUDY    52  50  93 N8        30.09R
SARANAC LAKE   FOG       51  51 100 N3        30.06R VSB 1/4
MASSENA        CLOUDY    54  52  93 NE12      30.10R
OGDENSBURG*    CLOUDY    54  54 100 E8        30.09R
POTSDAM*       CLOUDY    52  52 100 E3        30.09R FOG
PARISHVILLE*     N/A     50 N/A N/A NE1         N/A
WATERTOWN      CLOUDY    55  51  86 NE9       30.05R FOG
FT DRUM        CLOUDY    52  52 100 NE8       30.06R FOG
ALBANY         LGT RAIN  60  56  86 N3        30.03S
GLENS FALLS    CLOUDY    60  56  86 E5        30.04R

$$
NHZ002-005-011-011100-
_____NEW HAMPSHIRE_____


CITY           SKY/WX    TMP DP  RH WIND       PRES   REMARKS
LEBANON        CLOUDY    57  52  83 CALM      30.08R
KEENE          CLOUDY    57  48  72 CALM      30.07R
MT WASHINGTON  CLOUDY    43  39  87 NE17        N/A
PLYMOUTH       CLOUDY    56  56 100 CALM      30.07S
WHITEFIELD     PTSUNNY   50  48  93 CALM      30.09R

$$

_____REGIONAL QUEBEC LOCATIONS_____


CITY           SKY/WX    TMP DP  RH WIND       PRES   REMARKS
MONTREAL       CLOUDY    54  48  82 NE14      30.12R
QUEBEC CITY    DRIZZLE   48  46  93 NE14      30.17R FOG
SHERBROOKE     FOG       50  50 100 E5        30.10R VSB 1/4

_____REGIONAL ONTARIO LOCATIONS_____


CITY           SKY/WX    TMP DP  RH WIND       PRES   REMARKS
OTTAWA         CLOUDY    52  50  93 E6        30.11R

______KEY______
VSB  - VISIBILITY IN MILES
WCI  - WIND CHILL INDEX
HX   - HEAT INDEX
$$
NNNN


USA.gov is the U.S. government's official web portal to all federal, state and local government web resources and services.